CZ-6A DEB, 56604

Orbit data source: Space-Track

CZ-6A DEB, 56604 is space debris in SSO originally from a launch on Fri, 11 Nov 2022 UTC launched from the Taiyaun Space Center, China (TSC). Debris objects in space refer to the collection of defunct objects orbiting the Earth. Examples of debris include non-operational satellites, rocket bodies, and fragments generated from explosions, collisions, or faulty payload assembly.

Loading next visibility...
Identifier
56604, 2022-151AEC
Orbit
SSO
Country
Flag of CNCN / PRC
Related business
Manufacturer
SAST
Mission
Spacecraft
Bus & Motor
Unknown
Mass
Unknown
Launch date (UTC)
2022-11-11 (3 years ago)
Launch vehicle
Unknown
Launch site
Taiyaun Space Center, China (TSC)
Object type
Payload
Rocket body
Debris
Shape & HBR
Unknown shape, 0.1 m
Radar Cross Section
Small (<0.1 m²)

Expand to show TLE details & history
Last TLE update: 1 day ago

TLE from 1 day ago
0 CZ-6A DEB
1 56604U 22151AEC 25354.64248369  .00025028  00000-0  25348-2 0  9994
2 56604  98.6451  57.2253 0044439  89.3694 271.2613 14.90181937151601
Epoch: 2025-12-20T15:25Z
TLE epoch observation values (Epoch: 2025-12-20T15:25:10.590Z)
Latitude
-0.00004°
Longitude
96.46483°
Altitude
599.835 km
Speed
7.56 km/s
True Right ascension
03h 48m 54s
True Declination
0° 00' 00"
Sunlit
Object was in full shadow at epoch
Visualization orbit readout
Latitude
Unknown
Longitude
Unknown
Altitude
Unknown
Speed
Unknown
Apparent Right ascension
Unknown
Apparent Declination
Unknown
Sunlit
N/A
Visualization observer readout
Local Sidereal Time
15:46:39
Azimuth
Unknown
Elevation
Unknown
Doppler factor
Unknown
Orbital elements
Apogee altitude
625.415 km
Perigee altitude
563.445 km
Semi-major axis
6,972.567 km
Eccentricity
0.00444
Inclination
98.6451°
RAAN
57.2253°
Arg. of periapsis
89.3694°
True anomaly
270.75213°
Mean anomaly
271.2613°
Eccentric anomaly
271.00672°
Mean motion
3.72781 °/min
Orbital period
96.57 mins
BSTAR
0.0025348
Loading maneuver chart data...
Computing Atmospheric mass density...
Loading historical data...
Loading historical data...
Loading historical data...
Loading historical data...
Loading historical data...
Loading historical data...
Loading historical data...

Documentation

Showing up to 5 results
|